RYR9436 EDLV-LERS

Flight info

Callsign RYR9436
Flight time 1h 57m
Altitude 35000
Route VEBAK2R VEBAK Z283 RITAX DCT GTQ DCT GILIR DCT INCUS DCT BALSI DCT DIVKO DCT BGR DCT GIR
Aircraft B738/M-SDE2E3FGHIRWXY/LB1

Departure

Time 2026-05-08 15:19
Airport Weeze (Niederrhein) Airport (EDLV)

Arrival

Time 2026-05-08 17:16
Airport Reus Airport (LERS)
Time Latitude Longitude Altitude Speed Heading
2026-05-08 14:57 51.59995 6.14862 112 ft 0 kts 89°
2026-05-08 15:09 51.59995 6.14855 112 ft 2 kts 89°
2026-05-08 15:09 51.59995 6.14829 109 ft 2 kts 89°
2026-05-08 15:10 51.59992 6.14803 109 ft 2 kts 44°
2026-05-08 15:10 51.59987 6.14798 110 ft 0 kts
2026-05-08 15:12 51.59994 6.14798 108 ft 1 kts
2026-05-08 15:12 51.60011 6.14799 110 ft 3 kts
2026-05-08 15:13 51.60033 6.14794 111 ft 3 kts 338°
2026-05-08 15:13 51.60044 6.14757 110 ft 4 kts 281°
2026-05-08 15:13 51.60048 6.14700 109 ft 6 kts 274°
2026-05-08 15:13 51.60047 6.14614 108 ft 10 kts 261°
2026-05-08 15:14 51.60049 6.14480 109 ft 14 kts 272°
2026-05-08 15:14 51.60052 6.14307 110 ft 18 kts 271°
2026-05-08 15:14 51.60057 6.14088 111 ft 21 kts 273°
2026-05-08 15:14 51.60063 6.13836 113 ft 24 kts 272°
2026-05-08 15:15 51.60070 6.13545 111 ft 28 kts 271°
2026-05-08 15:15 51.60076 6.13245 109 ft 26 kts 271°
2026-05-08 15:15 51.60082 6.12963 107 ft 24 kts 272°
2026-05-08 15:15 51.60087 6.12702 108 ft 23 kts 272°
2026-05-08 15:16 51.60093 6.12497 109 ft 14 kts 279°
2026-05-08 15:16 51.60134 6.12457 110 ft 6 kts 356°
2026-05-08 15:16 51.60173 6.12457 110 ft 6 kts
2026-05-08 15:16 51.60213 6.12461 111 ft 6 kts
2026-05-08 15:17 51.60252 6.12466 112 ft 6 kts
2026-05-08 15:17 51.60282 6.12510 111 ft 7 kts 73°
2026-05-08 15:17 51.60282 6.12556 110 ft 2 kts 92°
2026-05-08 15:17 51.60281 6.12608 109 ft 7 kts 92°
2026-05-08 15:18 51.60279 6.12703 109 ft 12 kts 91°
2026-05-08 15:18 51.60273 6.12968 111 ft 53 kts 92°
2026-05-08 15:18 51.60251 6.13960 115 ft 123 kts 92°
2026-05-08 15:18 51.60213 6.15653 250 ft 169 kts 91°
2026-05-08 15:19 51.60193 6.17491 1123 ft 163 kts 91°
2026-05-08 15:19 51.60177 6.19311 1946 ft 167 kts 90°
2026-05-08 15:19 51.60126 6.21334 2394 ft 192 kts 92°
2026-05-08 15:19 51.60058 6.23512 3173 ft 199 kts 92°
2026-05-08 15:20 51.59990 6.25861 3505 ft 222 kts 92°
2026-05-08 15:20 51.59922 6.28435 3989 ft 238 kts 92°
2026-05-08 15:20 51.59856 6.31136 4751 ft 244 kts 92°
2026-05-08 15:20 51.59790 6.33897 5591 ft 247 kts 92°
2026-05-08 15:21 51.59724 6.36679 6441 ft 250 kts 93°
2026-05-08 15:21 51.59481 6.39466 7126 ft 258 kts 113°
2026-05-08 15:21 51.58365 6.41738 7550 ft 272 kts 149°
2026-05-08 15:21 51.56563 6.42576 8287 ft 275 kts 183°
2026-05-08 15:22 51.54682 6.41963 9107 ft 278 kts 195°
2026-05-08 15:22 51.52794 6.41166 9893 ft 284 kts 195°
2026-05-08 15:22 51.50864 6.40342 10525 ft 294 kts 195°
2026-05-08 15:22 51.48795 6.39449 10711 ft 319 kts 195°
2026-05-08 15:23 51.46595 6.38498 11097 ft 335 kts 195°
2026-05-08 15:23 51.44316 6.37515 11780 ft 340 kts 195°
2026-05-08 15:23 51.42022 6.36528 12578 ft 342 kts 195°
2026-05-08 15:23 51.39710 6.35535 13334 ft 346 kts 196°
2026-05-08 15:24 51.37366 6.34532 14050 ft 350 kts 195°
2026-05-08 15:24 51.35031 6.33536 14724 ft 353 kts 196°
2026-05-08 15:24 51.32619 6.32505 15425 ft 356 kts 196°
2026-05-08 15:24 51.30249 6.31494 16107 ft 359 kts 195°
2026-05-08 15:25 51.27825 6.30461 16791 ft 362 kts 195°
2026-05-08 15:25 51.25383 6.29420 17470 ft 365 kts 195°
2026-05-08 15:25 51.22918 6.28372 18145 ft 368 kts 195°
2026-05-08 15:25 51.20430 6.27316 18749 ft 371 kts 195°
2026-05-08 15:26 51.17923 6.26254 19330 ft 374 kts 195°
2026-05-08 15:26 51.15401 6.25186 19909 ft 376 kts 195°
2026-05-08 15:26 51.12852 6.24107 20463 ft 380 kts 195°
2026-05-08 15:26 51.10286 6.23022 21019 ft 383 kts 195°
2026-05-08 15:27 51.07699 6.21931 21582 ft 386 kts 196°
2026-05-08 15:27 51.05126 6.20846 22129 ft 389 kts 196°
2026-05-08 15:27 51.02499 6.19740 22653 ft 392 kts 196°
2026-05-08 15:27 50.99843 6.18623 23188 ft 395 kts 196°
2026-05-08 15:28 50.97180 6.17503 23693 ft 398 kts 196°
2026-05-08 15:28 50.94486 6.16372 24114 ft 401 kts 196°
2026-05-08 15:28 50.91781 6.15239 24556 ft 403 kts 196°
2026-05-08 15:28 50.89069 6.14104 24995 ft 405 kts 196°
2026-05-08 15:29 50.86328 6.12958 25405 ft 408 kts 196°
2026-05-08 15:29 50.83576 6.11809 25817 ft 410 kts 195°
2026-05-08 15:29 50.81744 6.11045 26091 ft 411 kts 196°
2026-05-08 15:29 50.78961 6.09884 26496 ft 414 kts 196°
2026-05-08 15:30 50.76177 6.08726 26897 ft 416 kts 195°
2026-05-08 15:30 50.73369 6.07558 27281 ft 418 kts 195°
2026-05-08 15:30 50.69625 6.06004 27783 ft 421 kts 195°
2026-05-08 15:30 50.66783 6.04826 28155 ft 423 kts 195°
2026-05-08 15:31 50.64859 6.04029 28399 ft 424 kts 195°
2026-05-08 15:31 50.62027 6.02858 28749 ft 426 kts 195°
2026-05-08 15:31 50.59118 6.01656 29098 ft 428 kts 195°
2026-05-08 15:31 50.56261 6.00477 29427 ft 430 kts 195°
2026-05-08 15:32 50.53347 5.99276 29762 ft 432 kts 195°
2026-05-08 15:32 50.50436 5.98078 30105 ft 434 kts 195°
2026-05-08 15:32 50.47509 5.96875 30471 ft 433 kts 195°
2026-05-08 15:32 50.44600 5.95681 30860 ft 432 kts 196°
2026-05-08 15:33 50.41698 5.94491 31184 ft 432 kts 196°
2026-05-08 15:33 50.38782 5.93297 31484 ft 432 kts 196°
2026-05-08 15:33 50.35871 5.92107 31804 ft 433 kts 196°
2026-05-08 15:33 50.32958 5.90917 32141 ft 432 kts 196°
2026-05-08 15:34 50.30044 5.89728 32472 ft 432 kts 196°
2026-05-08 15:34 50.27136 5.88543 32772 ft 432 kts 196°
2026-05-08 15:34 50.24227 5.87359 33087 ft 432 kts 196°
2026-05-08 15:34 50.21358 5.86192 33393 ft 432 kts 196°
2026-05-08 15:35 50.18446 5.85010 33705 ft 431 kts 197°
2026-05-08 15:35 50.15534 5.83829 34011 ft 431 kts 197°
2026-05-08 15:35 50.12636 5.82656 34259 ft 431 kts 197°
2026-05-08 15:35 50.09664 5.81851 34445 ft 436 kts 183°
2026-05-08 15:36 50.06638 5.82298 34645 ft 440 kts 168°
2026-05-08 15:36 50.03744 5.83903 34881 ft 444 kts 154°
2026-05-08 15:36 50.01028 5.86236 35075 ft 446 kts 153°
2026-05-08 15:36 49.98311 5.88622 35059 ft 450 kts 153°
2026-05-08 15:37 49.93711 5.92633 35061 ft 451 kts 153°
2026-05-08 15:37 49.88245 5.97317 35059 ft 444 kts 154°
2026-05-08 15:38 49.82825 6.01905 35075 ft 443 kts 154°
2026-05-08 15:38 49.77861 6.06085 35072 ft 444 kts 154°
2026-05-08 15:39 49.72464 6.10620 35073 ft 444 kts 154°
2026-05-08 15:39 49.67039 6.15169 35082 ft 444 kts 154°
2026-05-08 15:40 49.61591 6.19727 35074 ft 445 kts 154°
2026-05-08 15:40 49.56143 6.24273 35073 ft 446 kts 154°
2026-05-08 15:41 49.50681 6.28820 35074 ft 446 kts 154°
2026-05-08 15:41 49.45230 6.33345 35072 ft 447 kts 154°
2026-05-08 15:42 49.39756 6.37878 35061 ft 448 kts 154°
2026-05-08 15:42 49.34262 6.42416 35056 ft 448 kts 154°
2026-05-08 15:43 49.28800 6.46917 35047 ft 448 kts 154°
2026-05-08 15:43 49.23301 6.51436 35054 ft 448 kts 154°
2026-05-08 15:44 49.17807 6.55940 35040 ft 448 kts 154°
2026-05-08 15:44 49.12303 6.60441 35042 ft 448 kts 155°
2026-05-08 15:45 49.06817 6.64917 35046 ft 448 kts 155°
2026-05-08 15:45 49.01311 6.69262 35029 ft 445 kts 162°
2026-05-08 15:46 48.98362 6.70499 35057 ft 438 kts 175°
2026-05-08 15:46 48.95333 6.70773 35033 ft 433 kts 186°
2026-05-08 15:46 48.89427 6.69322 35040 ft 430 kts 193°
2026-05-08 15:47 48.83525 6.67738 35041 ft 431 kts 193°
2026-05-08 15:47 48.77607 6.66208 35035 ft 431 kts 193°
2026-05-08 15:48 48.68760 6.63953 35030 ft 432 kts 193°
2026-05-08 15:49 48.62824 6.62446 35034 ft 432 kts 193°
2026-05-08 15:49 48.56882 6.60940 35034 ft 432 kts 193°
2026-05-08 15:50 48.50970 6.59444 35035 ft 433 kts 193°
2026-05-08 15:50 48.45024 6.57943 35039 ft 433 kts 193°
2026-05-08 15:51 48.39070 6.56444 35031 ft 434 kts 193°
2026-05-08 15:51 48.33117 6.54948 35026 ft 433 kts 193°
2026-05-08 15:52 48.27168 6.53457 35029 ft 433 kts 193°
2026-05-08 15:52 48.21219 6.51970 35027 ft 433 kts 193°
2026-05-08 15:53 48.15273 6.50487 35026 ft 433 kts 193°
2026-05-08 15:53 48.09364 6.49016 35019 ft 433 kts 193°
2026-05-08 15:54 48.03420 6.47540 35005 ft 433 kts 194°
2026-05-08 15:54 47.97472 6.46067 35006 ft 433 kts 194°
2026-05-08 15:55 47.91530 6.44598 34995 ft 433 kts 194°
2026-05-08 15:55 47.82605 6.42398 34993 ft 434 kts 194°
2026-05-08 15:56 47.76642 6.40934 34987 ft 434 kts 194°
2026-05-08 15:56 47.70671 6.39470 34991 ft 434 kts 194°
2026-05-08 15:57 47.64737 6.38018 34995 ft 434 kts 194°
2026-05-08 15:57 47.58768 6.36562 34995 ft 435 kts 194°
2026-05-08 15:58 47.52785 6.35106 34994 ft 435 kts 195°
2026-05-08 15:58 47.46805 6.33653 35000 ft 436 kts 195°
2026-05-08 15:59 47.40812 6.32201 35014 ft 437 kts 195°
2026-05-08 15:59 47.34804 6.30748 35002 ft 438 kts 195°
2026-05-08 16:00 47.28783 6.29296 35001 ft 439 kts 195°
2026-05-08 16:00 47.22787 6.27853 35006 ft 440 kts 195°
2026-05-08 16:01 47.16735 6.26399 35010 ft 440 kts 195°
2026-05-08 16:01 47.10689 6.24950 34995 ft 441 kts 195°
2026-05-08 16:02 47.04628 6.23525 35010 ft 442 kts 193°
2026-05-08 16:02 46.98525 6.22479 35005 ft 444 kts 192°
2026-05-08 16:03 46.92364 6.21554 35003 ft 444 kts 192°
2026-05-08 16:03 46.86212 6.20592 35001 ft 444 kts 192°
2026-05-08 16:04 46.80069 6.19597 35006 ft 443 kts 192°
2026-05-08 16:04 46.73934 6.18595 35006 ft 443 kts 192°
2026-05-08 16:05 46.67860 6.17604 34998 ft 442 kts 192°
2026-05-08 16:05 46.61760 6.16613 35009 ft 441 kts 192°
2026-05-08 16:06 46.55647 6.15620 34998 ft 440 kts 192°
2026-05-08 16:06 46.49559 6.14635 34999 ft 440 kts 192°
2026-05-08 16:07 46.43513 6.13659 34995 ft 439 kts 192°
2026-05-08 16:07 46.37444 6.12681 34998 ft 438 kts 192°
2026-05-08 16:08 46.31382 6.11708 34989 ft 438 kts 192°
2026-05-08 16:08 46.25308 6.10734 34995 ft 438 kts 192°
2026-05-08 16:09 46.20273 6.09928 34995 ft 438 kts 192°
2026-05-08 16:09 46.13238 6.08804 34997 ft 437 kts 192°
2026-05-08 16:10 46.07179 6.07838 34969 ft 437 kts 192°
2026-05-08 16:10 46.01128 6.06876 34968 ft 437 kts 192°
2026-05-08 16:11 45.95086 6.05918 34971 ft 436 kts 192°
2026-05-08 16:11 45.89087 6.04967 34963 ft 436 kts 192°
2026-05-08 16:12 45.83078 6.03969 34963 ft 434 kts 194°
2026-05-08 16:12 45.77118 6.02635 34974 ft 432 kts 195°
2026-05-08 16:13 45.71399 6.00348 34975 ft 424 kts 205°
2026-05-08 16:13 45.65833 5.97546 34960 ft 423 kts 205°
2026-05-08 16:14 45.60310 5.94807 34978 ft 423 kts 204°
2026-05-08 16:14 45.54736 5.92100 34972 ft 422 kts 204°
2026-05-08 16:15 45.49176 5.89432 34981 ft 421 kts 204°
2026-05-08 16:15 45.43625 5.86774 34971 ft 420 kts 204°
2026-05-08 16:16 45.38073 5.84121 34965 ft 419 kts 204°
2026-05-08 16:16 45.33497 5.81935 35000 ft 418 kts 204°
2026-05-08 16:17 45.27971 5.79305 34975 ft 418 kts 204°
2026-05-08 16:17 45.21553 5.76264 35016 ft 416 kts 204°
2026-05-08 16:18 45.16984 5.74096 35012 ft 417 kts 204°
2026-05-08 16:18 45.11468 5.71483 35015 ft 417 kts 203°
2026-05-08 16:19 45.05949 5.68876 35008 ft 418 kts 203°
2026-05-08 16:19 45.00453 5.66287 35020 ft 418 kts 203°
2026-05-08 16:20 44.94904 5.63678 35016 ft 419 kts 203°
2026-05-08 16:20 44.89410 5.61100 35018 ft 418 kts 203°
2026-05-08 16:21 44.83889 5.58515 35026 ft 417 kts 203°
2026-05-08 16:21 44.78389 5.55944 35018 ft 415 kts 203°
2026-05-08 16:22 44.72914 5.53391 35023 ft 414 kts 203°
2026-05-08 16:22 44.67436 5.50840 35001 ft 415 kts 203°
2026-05-08 16:23 44.61963 5.48296 34999 ft 414 kts 202°
2026-05-08 16:23 44.56512 5.45769 35010 ft 411 kts 202°
2026-05-08 16:24 44.51086 5.43257 35007 ft 409 kts 203°
2026-05-08 16:24 44.45722 5.40781 34996 ft 408 kts 202°
2026-05-08 16:25 44.40345 5.38303 35009 ft 407 kts 202°
2026-05-08 16:25 44.34961 5.35825 35011 ft 407 kts 202°
2026-05-08 16:26 44.29584 5.33355 35016 ft 407 kts 202°
2026-05-08 16:26 44.24184 5.30880 35008 ft 408 kts 202°
2026-05-08 16:27 44.18805 5.28419 35006 ft 409 kts 202°
2026-05-08 16:27 44.13395 5.25949 35012 ft 410 kts 202°
2026-05-08 16:28 44.07959 5.23472 35004 ft 411 kts 202°
2026-05-08 16:28 44.02522 5.21000 35005 ft 410 kts 202°
2026-05-08 16:29 43.97106 5.18542 35017 ft 409 kts 202°
2026-05-08 16:29 43.91728 5.16106 35006 ft 408 kts 202°
2026-05-08 16:30 43.86343 5.13671 35016 ft 407 kts 202°
2026-05-08 16:30 43.80964 5.11247 35021 ft 405 kts 202°
2026-05-08 16:31 43.75617 5.08837 35013 ft 404 kts 202°
2026-05-08 16:31 43.70270 5.06431 35014 ft 402 kts 202°
2026-05-08 16:32 43.64955 5.04046 35020 ft 401 kts 202°
2026-05-08 16:32 43.59647 5.01667 35027 ft 400 kts 202°
2026-05-08 16:33 43.54387 4.99315 35022 ft 400 kts 202°
2026-05-08 16:33 43.49093 4.96952 35019 ft 400 kts 202°
2026-05-08 16:34 43.43794 4.94592 35022 ft 399 kts 202°
2026-05-08 16:34 43.38510 4.92242 35021 ft 399 kts 202°
2026-05-08 16:35 43.33221 4.89894 35024 ft 399 kts 202°
2026-05-08 16:35 43.27937 4.87553 35025 ft 399 kts 202°
2026-05-08 16:36 43.22687 4.85230 35025 ft 399 kts 202°
2026-05-08 16:36 43.17401 4.82896 35027 ft 398 kts 202°
2026-05-08 16:37 43.12109 4.80564 35024 ft 399 kts 201°
2026-05-08 16:37 43.06993 4.77871 35019 ft 393 kts 213°
2026-05-08 16:38 43.04764 4.75658 35026 ft 390 kts 224°
2026-05-08 16:38 43.02942 4.72999 35027 ft 388 kts 233°
2026-05-08 16:38 42.99784 4.67008 35024 ft 388 kts 234°
2026-05-08 16:39 42.96561 4.61073 35026 ft 389 kts 233°
2026-05-08 16:39 42.93398 4.55292 35008 ft 371 kts 233°
2026-05-08 16:40 42.90344 4.49717 35022 ft 367 kts 233°
2026-05-08 16:40 42.87294 4.44153 34999 ft 359 kts 233°
2026-05-08 16:41 42.85831 4.41487 34991 ft 345 kts 233°
2026-05-08 16:41 42.84410 4.38900 34760 ft 339 kts 233°
2026-05-08 16:41 42.82984 4.36305 33975 ft 348 kts 233°
2026-05-08 16:42 42.79920 4.30739 31843 ft 376 kts 233°
2026-05-08 16:42 42.78357 4.27904 31460 ft 371 kts 233°
2026-05-08 16:42 42.76834 4.25143 31104 ft 367 kts 233°
2026-05-08 16:42 42.75304 4.22372 30676 ft 365 kts 233°
2026-05-08 16:43 42.73784 4.19622 30224 ft 364 kts 233°
2026-05-08 16:43 42.72263 4.16873 29731 ft 362 kts 233°
2026-05-08 16:43 42.70755 4.14149 29423 ft 355 kts 233°
2026-05-08 16:43 42.69288 4.11502 29225 ft 346 kts 233°
2026-05-08 16:44 42.67851 4.08912 28932 ft 340 kts 233°
2026-05-08 16:44 42.66459 4.06404 28722 ft 333 kts 233°
2026-05-08 16:44 42.65056 4.03880 28533 ft 339 kts 233°
2026-05-08 16:44 42.63599 4.01259 28380 ft 355 kts 233°
2026-05-08 16:45 42.62090 3.98548 28208 ft 363 kts 233°
2026-05-08 16:45 42.60572 3.95825 28004 ft 360 kts 233°
2026-05-08 16:45 42.59070 3.93130 27815 ft 355 kts 233°
2026-05-08 16:45 42.57585 3.90469 27640 ft 351 kts 233°
2026-05-08 16:46 42.56111 3.87831 27517 ft 351 kts 232°
2026-05-08 16:46 42.54654 3.85225 27399 ft 351 kts 232°
2026-05-08 16:46 42.53161 3.82558 27346 ft 350 kts 232°
2026-05-08 16:46 42.51692 3.79934 27292 ft 348 kts 232°
2026-05-08 16:47 42.50250 3.77363 27234 ft 347 kts 232°
2026-05-08 16:47 42.48787 3.74754 27188 ft 347 kts 232°
2026-05-08 16:47 42.47324 3.72149 27157 ft 346 kts 232°
2026-05-08 16:47 42.45867 3.69558 27135 ft 346 kts 232°
2026-05-08 16:48 42.44403 3.66956 27112 ft 347 kts 232°
2026-05-08 16:48 42.42938 3.64354 27087 ft 347 kts 232°
2026-05-08 16:48 42.41466 3.61742 27060 ft 348 kts 232°
2026-05-08 16:48 42.39995 3.59134 27042 ft 349 kts 232°
2026-05-08 16:49 42.38522 3.56524 27051 ft 349 kts 232°
2026-05-08 16:49 42.37072 3.53958 27026 ft 347 kts 232°
2026-05-08 16:49 42.35601 3.51356 27014 ft 349 kts 232°
2026-05-08 16:49 42.34120 3.48741 26781 ft 351 kts 232°
2026-05-08 16:50 42.32645 3.46136 26522 ft 347 kts 232°
2026-05-08 16:50 42.31182 3.43555 26269 ft 344 kts 232°
2026-05-08 16:50 42.29723 3.40984 26021 ft 343 kts 232°
2026-05-08 16:50 42.28266 3.38418 25779 ft 342 kts 232°
2026-05-08 16:51 42.26832 3.35895 25538 ft 342 kts 232°
2026-05-08 16:51 42.25384 3.33350 25296 ft 341 kts 232°
2026-05-08 16:51 42.23935 3.30806 25055 ft 341 kts 232°
2026-05-08 16:51 42.22490 3.28271 24822 ft 341 kts 232°
2026-05-08 16:52 42.21043 3.25733 24588 ft 341 kts 232°
2026-05-08 16:52 42.19596 3.23198 24356 ft 341 kts 232°
2026-05-08 16:52 42.18144 3.20657 24121 ft 341 kts 232°
2026-05-08 16:52 42.16696 3.18124 23898 ft 341 kts 232°
2026-05-08 16:53 42.13820 3.13100 23397 ft 338 kts 232°
2026-05-08 16:53 42.12395 3.10614 23127 ft 338 kts 232°
2026-05-08 16:53 42.10955 3.08105 22863 ft 338 kts 232°
2026-05-08 16:54 42.09514 3.05594 22604 ft 337 kts 232°
2026-05-08 16:54 42.08080 3.03098 22329 ft 337 kts 232°
2026-05-08 16:54 42.06643 3.00599 22063 ft 337 kts 232°
2026-05-08 16:54 42.05208 2.98106 21799 ft 336 kts 232°
2026-05-08 16:55 42.03774 2.95617 21538 ft 335 kts 232°
2026-05-08 16:55 42.02361 2.93165 21279 ft 335 kts 232°
2026-05-08 16:55 42.00934 2.90690 21030 ft 334 kts 232°
2026-05-08 16:55 41.99511 2.88225 20774 ft 333 kts 232°
2026-05-08 16:56 41.98090 2.85765 20532 ft 333 kts 232°
2026-05-08 16:56 41.96655 2.83284 20301 ft 342 kts 232°
2026-05-08 16:56 41.95185 2.80689 20067 ft 354 kts 234°
2026-05-08 16:56 41.93797 2.77912 19823 ft 358 kts 237°
2026-05-08 16:57 41.92484 2.75120 19576 ft 357 kts 238°
2026-05-08 16:57 41.91179 2.72303 19332 ft 355 kts 238°
2026-05-08 16:57 41.89876 2.69498 19085 ft 353 kts 238°
2026-05-08 16:57 41.88571 2.66709 18852 ft 352 kts 237°
2026-05-08 16:58 41.87263 2.63933 18613 ft 351 kts 237°
2026-05-08 16:58 41.85950 2.61163 18377 ft 350 kts 237°
2026-05-08 16:58 41.84644 2.58417 18123 ft 350 kts 237°
2026-05-08 16:58 41.83332 2.55667 17854 ft 349 kts 237°
2026-05-08 16:59 41.82018 2.52917 17612 ft 349 kts 237°
2026-05-08 16:59 41.80707 2.50180 17334 ft 349 kts 237°
2026-05-08 16:59 41.79399 2.47451 17080 ft 348 kts 237°
2026-05-08 16:59 41.78090 2.44724 16816 ft 347 kts 237°
2026-05-08 17:00 41.76780 2.41996 16569 ft 346 kts 237°
2026-05-08 17:00 41.75476 2.39283 16304 ft 346 kts 237°
2026-05-08 17:00 41.74174 2.36578 16051 ft 344 kts 237°
2026-05-08 17:00 41.72894 2.33920 15807 ft 343 kts 237°
2026-05-08 17:01 41.71600 2.31235 15550 ft 342 kts 237°
2026-05-08 17:01 41.70310 2.28562 15304 ft 341 kts 237°
2026-05-08 17:01 41.69024 2.25898 15050 ft 340 kts 237°
2026-05-08 17:01 41.67745 2.23253 14809 ft 339 kts 237°
2026-05-08 17:02 41.66464 2.20604 14582 ft 337 kts 237°
2026-05-08 17:02 41.65189 2.17971 14232 ft 337 kts 237°
2026-05-08 17:02 41.63921 2.15355 13896 ft 334 kts 237°
2026-05-08 17:02 41.62662 2.12757 13503 ft 332 kts 237°
2026-05-08 17:03 41.61408 2.10174 13107 ft 330 kts 237°
2026-05-08 17:03 41.60163 2.07611 12744 ft 328 kts 237°
2026-05-08 17:03 41.58921 2.05056 12365 ft 326 kts 237°
2026-05-08 17:03 41.57687 2.02521 12005 ft 324 kts 237°
2026-05-08 17:04 41.56461 2.00002 11650 ft 322 kts 237°
2026-05-08 17:04 41.55240 1.97498 11271 ft 322 kts 237°
2026-05-08 17:04 41.54039 1.95036 10925 ft 320 kts 237°
2026-05-08 17:04 41.52823 1.92544 10581 ft 318 kts 237°
2026-05-08 17:05 41.51627 1.90098 10220 ft 312 kts 237°
2026-05-08 17:05 41.50456 1.87703 9924 ft 303 kts 237°
2026-05-08 17:05 41.49330 1.85403 9579 ft 296 kts 237°
2026-05-08 17:05 41.48206 1.83107 9254 ft 296 kts 237°
2026-05-08 17:06 41.47458 1.81579 9009 ft 297 kts 237°
2026-05-08 17:06 41.46325 1.79269 8695 ft 296 kts 237°
2026-05-08 17:06 41.45197 1.76968 8367 ft 295 kts 237°
2026-05-08 17:06 41.44076 1.74687 8052 ft 294 kts 236°
2026-05-08 17:07 41.42957 1.72410 7735 ft 292 kts 236°
2026-05-08 17:07 41.41845 1.70147 7428 ft 291 kts 236°
2026-05-08 17:07 41.40736 1.67893 7123 ft 290 kts 236°
2026-05-08 17:07 41.39650 1.65687 6819 ft 288 kts 236°
2026-05-08 17:08 41.38538 1.63429 6526 ft 287 kts 236°
2026-05-08 17:08 41.37457 1.61237 6381 ft 279 kts 236°
2026-05-08 17:08 41.36416 1.59128 6239 ft 272 kts 236°
2026-05-08 17:08 41.35386 1.57042 6118 ft 265 kts 236°
2026-05-08 17:09 41.34359 1.55054 5982 ft 258 kts 227°
2026-05-08 17:09 41.32909 1.53744 5762 ft 250 kts 200°
2026-05-08 17:09 41.31307 1.52858 5503 ft 249 kts 202°
2026-05-08 17:09 41.29744 1.51885 5278 ft 246 kts 204°
2026-05-08 17:10 41.29194 1.51537 5203 ft 244 kts 203°
2026-05-08 17:10 41.27688 1.50579 4967 ft 237 kts 204°
2026-05-08 17:10 41.26212 1.49641 4705 ft 232 kts 203°
2026-05-08 17:11 41.24778 1.48726 4456 ft 226 kts 206°
2026-05-08 17:11 41.23636 1.47356 4222 ft 223 kts 240°
2026-05-08 17:11 41.23077 1.45487 4035 ft 213 kts 249°
2026-05-08 17:11 41.22580 1.43676 3806 ft 205 kts 248°
2026-05-08 17:12 41.22079 1.41934 3605 ft 199 kts 248°
2026-05-08 17:12 41.21588 1.40243 3407 ft 194 kts 247°
2026-05-08 17:12 41.21107 1.38598 3209 ft 188 kts 247°
2026-05-08 17:12 41.20637 1.36990 3026 ft 186 kts 247°
2026-05-08 17:13 41.20170 1.35390 2873 ft 184 kts 247°
2026-05-08 17:13 41.19717 1.33833 2741 ft 181 kts 247°
2026-05-08 17:13 41.19264 1.32284 2526 ft 176 kts 247°
2026-05-08 17:13 41.18831 1.30792 2273 ft 175 kts 247°
2026-05-08 17:14 41.18395 1.29295 2054 ft 170 kts 247°
2026-05-08 17:14 41.17991 1.27906 1797 ft 157 kts 248°
2026-05-08 17:14 41.17604 1.26572 1633 ft 157 kts 246°
2026-05-08 17:14 41.17196 1.25181 1387 ft 163 kts 246°
2026-05-08 17:15 41.16795 1.23803 1172 ft 157 kts 246°
2026-05-08 17:15 41.16405 1.22448 931 ft 155 kts 245°
2026-05-08 17:15 41.16024 1.21142 716 ft 148 kts 246°
2026-05-08 17:15 41.15651 1.19877 503 ft 149 kts 244°
2026-05-08 17:16 41.15290 1.18602 314 ft 149 kts 245°
2026-05-08 17:16 41.14932 1.17375 240 ft 123 kts 250°
2026-05-08 17:16 41.14699 1.16581 240 ft 61 kts 250°
2026-05-08 17:16 41.14576 1.16155 240 ft 38 kts 248°
2026-05-08 17:17 41.14543 1.15917 240 ft 16 kts 322°
2026-05-08 17:17 41.14640 1.15857 240 ft 15 kts 316°
2026-05-08 17:17 41.14628 1.15727 240 ft 15 kts 248°
2026-05-08 17:17 41.14593 1.15612 240 ft 0 kts 248°
2026-05-08 17:18 41.14591 1.15605 241 ft 1 kts 248°
2026-05-08 17:18 41.14589 1.15597 240 ft 1 kts 249°
2026-05-08 17:18 41.14586 1.15587 240 ft 2 kts 249°
2026-05-08 17:19 41.14587 1.15540 240 ft 6 kts 297°
2026-05-08 17:19 41.14625 1.15513 241 ft 6 kts 338°
2026-05-08 17:19 41.14648 1.15501 240 ft 0 kts 339°